Regional Weather Roundup
Issued by NWS Cleveland, OH

Home | Current Version | Previous Version | Text Only | Print | Product List | Glossary Off
Versions: 1 2 3 4 5 6 7 8 9 10 11 12 13 14 15 16 17 18 19 20 21 22 23 24 25 26 27 28 29 30 31 32 33 34 35 36 37 38 39 40 41 42 43 44 45 46 47 48 49 50

000
ASUS41 KCLE 242212
RWRCLE
OHIO REGIONAL WEATHER ROUNDUP
NATIONAL WEATHER SERVICE WILMINGTON, OH
600 PM EDT WED MAY 24 2017

NOTE: "FAIR" INDICATES FEW OR NO CLOUDS BELOW 12,000 FEET WITH NO
SIGNIFICANT WEATHER AND/OR OBSTRUCTIONS TO VISIBILITY.

OHZ001>008-015>018-024>027-034-035-043-044-242300-
   NORTHWEST OHIO

CITY           SKY/WX    TMP DP  RH WIND       PRES   REMARKS
DEFIANCE       CLOUDY    60  57  89 NE15G25   29.47R
FINDLAY        LGT RAIN  64  59  83 E10       29.44F
TOLEDO EXPRESS LGT RAIN  59  59 100 E14       29.49S FOG
TOLEDO EXEC    CLOUDY    61  59  93 E14G22    29.50F FOG
LIMA           CLOUDY    66  59  78 E16       29.42F
$$

OHZ009>014-019>023-028>033-038-089-242300-
   NORTHEAST OHIO

CITY           SKY/WX    TMP DP  RH WIND       PRES   REMARKS
CLE-HOPKINS    CLOUDY    65  59  81 SE12      29.54R
CLE-LAKEFRONT  CLOUDY    64  58  80 SE10      29.52R
CUY CO. ARPT   CLOUDY    64  59  82 SE16      29.54F
LORAIN-ELYRIA    N/A    N/A N/A N/A MISG      29.52S
ASHTABULA      CLOUDY    65  56  72 SE12      29.56F
AKRON-CANTON   CLOUDY    63  57  81 SE12      29.52S
WOOSTER        CLOUDY    62  59  90 E8        29.51S
MANSFIELD      CLOUDY    61  60  97 E8        29.46F
YOUNGSTOWN     CLOUDY    64  54  69 SE15G24   29.56S
$$

OHZ042-051>053-060>062-070>072-077>081-242300-
  SOUTHWEST OHIO

CITY           SKY/WX    TMP DP  RH WIND       PRES   REMARKS
CINC-COVINGTON CLOUDY    61  60  97 NW14      29.36S
CINC-LUNKEN    CLOUDY    70  59  68 SE12      29.35S
HAMILTON       TSTM      60  60 100 NW15G26   29.36F VSB 3/4
DAYTON         CLOUDY    67  57  70 E14       29.40S
WRIGHT-PAT AFB CLOUDY    68  59  71 E12       29.38F
DAYTON GENERAL CLOUDY    68  57  68 E8        29.36F
WILMINGTON     CLOUDY    68  58  70 E12G21    29.38F
$$

OHZ036-037-039>041-045>050-054>059-063>069-073>076-082>088-242300-
  CENTRAL AND SOUTHEAST OHIO

CITY           SKY/WX    TMP DP  RH WIND       PRES   REMARKS
COLUMBUS       PTSUNNY   68  61  78 SE8       29.42F
OSU AIRPORT    CLOUDY    67  61  81 E9        29.42F
BOLTON FIELD   CLOUDY    66  61  82 E9        29.42F
RICKENBACK AFB PTSUNNY   67  62  86 E12       29.40F
NEWARK         LGT RAIN  66  61  84 E7        29.43F
MARION         PTSUNNY   64  59  83 SE9       29.46F
LANCASTER      PTSUNNY   68  62  81 E8        29.42F
ZANESVILLE     LGT RAIN  66  62  87 SE9       29.47S
NEW PHILLY     LGT RAIN  66  60  81 E9        29.49F
$$




USA.gov is the U.S. government's official web portal to all federal, state and local government web resources and services.